Location: Newark
(41.0400°S, 62.7845°W)
Time: 07:29:11
(UTC+00:00)

Transit 2A - Pass Details

Date: 02 December 2021
Orbit: 591 x 967 km, 66.7° (Epoch: 19 January)

Event Time Altitude Azimuth Distance (km) Brightness Sun altitude
Rises 00:59:15 0° 203° (SSW) 2,866 10.4 -14.3°
Reaches altitude 10° 01:01:38 10° 194° (SSW) 1,959 9.1 -14.6°
Maximum altitude 01:05:40 36° 126° (SE) 985 6.5 -15.1°
Enters shadow 01:07:58 22° 74° (ENE) 1,388 6.9 -15.4°
Drops below altitude 10° 01:09:50 10° 59° (ENE) 2,018 - -15.6°
Sets 01:12:19 0° 50° (NE) 2,964 - -15.9°
